Location: Miles
(41.4492°N, 81.6087°W)
Time: 10:23:17
(UTC+00:00)

Courier 1B - Pass Details

Date: 13 September 2024
Orbit: 962 x 1208 km, 28.3° (Epoch: 09 October)

Event Time Altitude Azimuth Distance (km) Brightness Sun altitude
Rises 18:21:50 0° 200° (SSW) 3,855 11.3 49.6°
Reaches altitude 10° 18:27:01 10° 169° (S) 2,971 10.7 49.2°
Maximum altitude 18:29:06 11° 152° (SSE) 2,897 10.5 49.1°
Drops below altitude 10° 18:31:14 10° 135° (SE) 3,025 10.4 48.9°
Sets 18:36:39 0° 104° (ESE) 4,046 10.6 48.4°
